Temperature
15 16 16 17 20 21 21 21 21 21 21 20 19 20 21 21 21 20 16 15 15 15 15 15 15 16 16 16 16 16 16 16 16 16 16 15 15 15 15 15 16 16 16 15 15 15 15 15 15
15 15 16 18 21 21 21 21 21 20 19 18 18 19 20 19 17 16 15 15 15 15 15 15 15 15 15 15 15 15 15 15 15 15 15 15 15 15 15 15 15 15 15 15 15 15 15 15 15
15 15 16 19 20 21 21 20 20 19 18 18 18 18 19 18 15 15 15 15 15 15 15 15 15 15 15 15 15 15 15 15 15 15 15 15 15 15 15 15 15 15 15 15 15 15 15 15 15
14 15 17 19 19 20 20 20 19 18 18 17 18 18 16 15 14 14 15 15 14 14 14 15 15 15 15 15 15 15 15 15 15 15 15 15 15 15 15 15 15 15 15 15 15 15 15 15 14
14 16 18 18 18 19 19 18 18 19 18 17 18 18 16 14 14 14 14 14 14 14 14 14 15 15 15 15 15 15 15 15 15 15 15 15 15 15 15 15 15 15 15 15 14 14 14 14 14
15 17 18 19 18 18 18 17 17 18 18 17 17 18 16 14 14 14 14 14 14 14 14 14 14 14 15 15 15 15 15 15 15 15 15 15 15 15 15 15 15 15 14 14 14 14 14 14 14
15 16 17 18 18 17 17 16 17 17 17 16 16 17 15 13 13 13 13 14 14 14 14 14 14 14 14 14 14 14 14 14 14 14 15 15 15 15 15 14 14 14 14 14 14 14 14 14 14
13 16 16 17 17 17 16 15 15 15 16 14 14 16 15 13 13 13 13 13 14 14 13 13 14 14 14 14 14 14 14 14 14 14 14 14 14 14 14 14 14 14 14 14 14 14 13 13 13
12 15 16 16 16 16 15 15 14 13 14 13 13 13 13 12 13 13 13 13 13 13 13 13 13 13 13 13 14 14 14 14 14 14 14 14 14 14 14 14 14 14 14 14 13 13 13 13 13
13 15 15 15 15 15 14 13 13 13 14 13 13 12 12 12 12 13 13 13 13 13 13 13 13 13 13 13 13 13 13 13 13 13 13 13 13 13 13 13 13 13 13 13 13 13 13 13 12
12 13 13 13 12 12 13 12 12 14 14 14 13 12 11 11 12 12 12 12 12 13 13 13 13 13 13 13 13 13 13 13 13 13 13 13 13 13 13 13 13 13 13 13 13 13 12 12 12
12 12 12 11 11 11 12 12 12 12 13 12 11 11 11 11 11 11 11 12 12 12 13 13 13 13 13 13 13 13 13 13 13 13 13 13 13 13 13 12 12 12 12 12 12 12 12 12 12
11 11 10 10 10 10 10 11 11 11 10 10 11 10 11 11 11 11 11 11 11 12 12 13 13 13 13 13 13 12 12 12 12 12 12 12 12 12 12 12 12 12 12 12 12 12 12 12 12
10 10 10 9 10 10 10 10 10 10 10 10 10 10 10 10 10 10 10 11 11 11 12 12 12 12 12 12 12 12 12 12 12 12 12 12 12 12 12 12 12 12 12 12 12 11 11 11 11
9 10 10 10 10 10 10 11 11 10 10 10 10 10 10 10 10 10 10 10 11 11 11 11 12 12 12 12 12 12 12 12 12 12 12 12 12 12 12 12 12 11 11 11 11 11 11 11 11
10 11 11 10 10 10 11 12 11 9 10 10 10 10 10 9 9 9 9 10 10 10 11 11 11 11 11 11 11 11 11 11 11 11 11 11 12 12 11 11 11 11 11 11 11 11 11 11 11
11 11 11 11 10 10 11 11 11 9 9 10 10 10 9 9 9 9 9 9 10 10 10 10 11 11 11 11 11 11 11 11 11 11 11 11 11 11 11 11 11 11 11 11 11 11 10 10 10
11 11 11 11 10 10 10 10 10 9 9 10 10 9 9 9 8 8 9 9 9 9 10 10 10 10 10 11 10 10 10 11 11 11 11 11 11 11 11 11 11 10 10 10 10 10 10 10 10
10 10 10 10 9 9 10 10 10 10 9 10 10 9 9 9 8 8 8 8 9 9 9 9 9 10 10 10 10 10 10 10 10 10 10 10 11 10 10 10 10 10 10 10 10 10 10 10 10
9 9 10 9 9 9 9 10 10 10 9 9 9 9 9 8 8 7 8 8 8 9 9 9 9 9 9 9 10 10 10 10 10 10 10 10 10 10 10 10 10 10 10 10 9 9 9 9 9
8 9 9 9 9 9 9 10 10 10 9 9 8 8 8 7 7 7 7 7 8 8 8 9 9 9 9 9 9 9 9 9 9 9 9 10 10 10 10 9 9 9 10 9 9 9 9 9 9
9 8 8 8 9 10 9 11 11 10 10 9 8 8 8 7 7 6 6 7 7 7 8 8 8 8 8 8 8 8 8 8 9 9 9 9 9 9 9 9 9 9 9 9 9 9 9 9 9
8 7 8 8 8 8 9 9 12 10 9 9 8 8 7 6 6 6 6 6 6 7 7 7 7 8 8 8 8 8 8 8 8 8 8 8 9 9 9 9 9 9 9 9 9 8 8 8 8
7 7 8 8 8 9 9 10 12 10 10 9 8 7 6 6 5 6 6 6 6 6 7 7 7 7 7 7 7 7 7 7 7 7 7 8 8 8 8 8 8 8 8 8 8 8 8 8 8
7 8 9 9 9 10 8 9 10 9 8 8 7 7 6 5 5 5 5 6 6 6 6 6 6 6 6 7 7 6 6 7 7 7 7 7 7 7 8 7 7 7 7 7 8 8 8 8 8
7 8 9 10 11 11 8 9 10 8 7 6 6 6 5 5 5 5 5 5 5 5 6 6 6 6 6 6 6 6 6 6 6 6 6 6 6 6 7 7 7 7 7 7 7 7 7 7 7
7 7 7 8 7 8 10 9 9 7 7 6 6 5 5 5 4 4 4 5 5 5 5 5 5 5 5 5 5 5 5 5 5 6 5 6 6 6 6 6 6 6 6 6 6 7 7 7 7
6 6 7 8 9 10 11 10 11 8 7 7 6 5 4 4 4 4 4 4 4 4 4 5 4 4 5 5 5 5 5 5 5 5 5 5 5 5 5 5 6 6 6 6 6 6 6 6 6
5 6 6 7 7 9 10 11 9 8 7 6 6 5 4 4 3 3 4 4 4 4 4 4 4 4 4 4 4 4 4 4 4 4 4 4 5 5 5 5 5 5 5 6 6 6 6 6 6
5 6 6 7 7 7 9 10 7 6 6 5 5 4 3 3 3 3 3 3 3 3 3 3 3 3 3 3 3 3 3 3 3 3 4 4 4 4 4 5 5 5 5 5 5 5 5 5 5
Wind_Speed
8 5 3 3 5 5 10 7 5 5 4 2 2 3 3 2 1 2 3 4 5 7 9 10 9 8 9 10 9 9 10 9 10 10 9 10 10 10 11 12 12 12 13 12 12 12 13 13 13
6 3 2 4 7 10 9 8 7 4 3 3 3 3 3 2 2 3 2 4 5 7 9 10 10 9 10 10 10 9 10 10 10 10 9 10 10 10 10 11 11 11 11 12 12 12 12 12 13
4 2 2 4 7 11 8 6 6 3 3 3 3 2 1 2 2 2 2 5 6 7 9 10 10 10 10 10 10 10 9 9 9 9 9 9 9 10 10 10 10 10 11 11 11 11 11 11 12
2 2 3 6 11 9 6 4 4 5 3 2 3 4 3 3 2 2 4 6 7 7 8 10 10 10 10 10 10 9 9 9 9 9 9 9 9 9 10 10 10 9 10 10 10 10 10 10 11
1 3 6 8 11 8 5 3 4 5 4 3 4 3 3 3 4 4 5 6 7 7 7 10 9 9 10 10 9 9 9 9 9 9 9 9 9 9 9 9 9 9 9 9 9 9 9 9 10
3 4 8 12 11 8 6 5 5 5 4 3 3 4 3 3 4 4 4 5 6 6 7 9 8 9 9 9 9 9 8 8 9 9 9 8 8 8 8 8 8 8 8 8 8 8 8 9 9
3 4 8 10 9 8 6 5 6 6 6 4 3 4 4 3 3 3 4 5 6 6 6 7 8 8 9 8 8 7 7 8 8 8 8 8 8 8 8 8 8 7 7 7 7 7 8 8 8
2 3 7 9 10 9 5 4 4 4 4 1 2 4 4 2 2 3 4 5 5 5 4 5 5 6 7 7 7 6 6 7 7 8 8 8 8 7 7 8 7 6 6 6 7 7 7 7 7
2 5 9 9 8 6 4 4 3 3 3 2 2 1 1 2 2 4 5 4 4 4 4 3 3 4 5 5 6 6 6 6 6 7 8 7 6 6 6 7 7 6 5 5 6 7 7 7 7
4 7 9 5 4 4 4 3 3 4 4 3 2 1 2 3 3 4 4 4 4 4 3 2 2 3 3 4 5 4 4 5 5 5 7 5 4 4 5 7 7 6 5 6 6 6 7 6 6
3 6 5 4 3 3 4 4 3 6 5 5 5 2 3 3 3 3 3 3 3 3 3 2 2 2 2 2 3 3 3 4 4 5 5 4 4 4 4 5 6 5 5 4 5 5 5 4 4
3 4 4 4 3 4 5 4 4 6 6 4 3 3 4 3 2 2 2 2 2 2 2 2 2 2 2 2 2 2 2 3 3 4 5 4 3 3 3 3 4 4 4 3 4 4 4 4 5
4 3 3 3 2 3 4 6 6 7 6 3 3 3 4 4 3 2 1 1 1 1 1 2 2 2 2 2 1 1 2 3 3 3 4 4 3 3 3 3 3 4 4 4 3 4 5 4 4
2 2 3 3 4 4 4 6 6 7 5 4 4 4 4 4 3 2 1 1 1 2 2 2 3 2 1 2 2 1 2 2 3 3 4 4 4 3 3 3 3 3 4 4 4 4 4 4 4
3 2 3 4 4 4 4 7 9 8 6 5 5 5 5 4 3 2 1 1 2 2 2 2 2 2 2 2 2 1 1 2 2 3 4 4 4 4 4 3 3 3 4 4 4 4 4 4 4
3 4 4 2 4 4 7 10 7 5 6 7 6 5 5 4 3 2 1 1 1 2 2 1 2 2 2 2 2 1 1 1 2 2 3 5 5 5 4 3 3 4 4 4 4 4 4 4 4
5 6 6 4 3 4 7 9 6 5 7 8 7 6 5 4 3 2 1 1 1 1 2 1 2 2 2 2 2 2 2 2 2 2 2 3 5 5 5 4 4 4 4 4 4 4 4 5 4
5 6 6 5 2 4 8 10 8 7 8 9 8 7 6 5 4 2 1 1 1 1 1 2 1 2 1 1 1 1 1 1 1 2 2 3 4 5 5 4 5 5 4 4 4 4 4 4 4
5 6 7 7 4 6 9 11 10 8 8 8 8 7 6 5 3 2 1 1 0 0 1 1 1 1 1 1 1 2 2 2 2 2 3 4 4 5 5 4 5 5 6 6 6 5 5 5 4
7 7 7 5 3 5 8 11 10 8 9 8 7 6 6 4 3 2 1 0 0 0 1 1 1 2 2 2 2 2 3 3 3 2 3 4 4 5 5 5 5 6 6 7 7 6 4 4 5
7 8 7 5 5 5 6 8 8 6 6 6 7 6 5 5 4 3 2 1 0 1 2 2 2 2 2 1 1 0 1 1 2 3 3 4 4 5 5 6 6 6 7 7 7 8 7 6 6
7 5 6 5 4 4 4 6 7 6 7 6 6 5 4 3 3 3 2 1 1 1 2 2 2 2 1 1 1 2 2 3 4 4 4 4 5 5 5 6 7 7 7 8 8 8 7 7 7
4 3 4 5 5 5 6 6 6 6 7 7 5 5 4 3 3 3 3 2 1 2 2 2 2 1 1 1 2 3 3 4 4 4 5 4 4 5 5 5 6 7 7 8 9 9 9 8 8
3 3 3 3 4 6 6 7 5 5 7 6 5 5 4 3 2 2 2 1 1 2 2 2 2 2 2 2 2 3 4 4 5 5 5 5 4 5 5 5 6 6 7 8 8 9 11 9 9
3 2 2 3 4 4 3 6 6 3 3 5 5 4 3 3 3 2 2 1 2 3 2 2 3 3 2 3 3 4 5 5 6 6 6 6 5 5 6 6 6 6 7 7 8 8 10 11 10
4 4 3 3 3 2 3 6 3 1 2 3 3 3 3 2 3 3 3 2 3 3 4 3 3 3 3 4 4 5 4 4 5 6 6 6 6 6 6 7 7 7 7 7 7 8 9 9 10
3 4 2 1 1 3 4 3 3 2 2 2 2 1 1 1 2 3 3 3 3 3 4 4 4 4 4 5 5 5 5 5 6 6 6 6 6 6 7 7 7 8 8 8 8 7 8 8 9
1 2 3 3 2 3 4 4 3 3 4 3 2 1 1 2 2 3 4 4 3 3 4 4 4 5 5 5 5 5 5 6 6 6 7 7 7 6 7 7 7 7 7 7 7 6 7 8 8
3 3 2 2 2 3 3 3 0 3 4 3 2 2 2 3 4 4 4 4 4 3 3 3 4 5 5 6 6 6 6 6 6 6 7 7 7 7 7 7 8 8 8 8 8 8 8 9 9
3 4 4 3 3 3 3 4 3 1 1 1 1 2 3 4 5 5 5 4 4 3 3 4 5 5 6 6 6 6 6 6 6 7 7 7 7 7 8 8 8 8 8 9 9 9 9 9 9
Wind_Direction
324 313 282 230 211 217 226 214 205 182 183 180 171 190 195 189 214 91 66 137 135 145 146 147 141 138 133 127 124 120 117 114 112 110 110 107 102 102 101 100 96 93 91 89 91 93 95 94 92
326 308 237 221 223 218 219 210 197 188 160 144 158 178 175 155 51 67 95 135 143 144 145 147 139 139 134 130 128 124 120 117 114 112 112 111 107 103 101 101 99 96 94 91 91 95 97 97 96
316 288 231 211 223 226 213 189 191 186 169 172 155 156 172 126 83 76 97 145 144 140 143 139 140 139 136 132 130 127 122 120 118 115 114 112 108 106 102 102 102 101 98 95 93 96 99 101 100
277 204 216 224 221 227 226 180 173 171 173 185 172 138 118 64 39 62 121 145 143 140 141 139 142 141 138 134 131 131 127 125 123 119 116 114 110 107 106 103 103 104 104 101 100 98 101 104 105
243 213 209 221 227 222 221 218 193 191 181 168 179 160 131 79 59 86 128 142 140 137 136 137 137 139 137 134 132 131 131 129 127 124 120 116 114 111 109 107 105 107 110 109 106 104 103 107 110
192 213 220 223 220 216 212 213 206 208 190 173 170 162 129 89 75 89 122 135 131 136 135 137 135 131 130 131 130 129 130 131 129 126 121 115 114 115 115 113 110 112 113 115 113 112 111 112 116
211 211 228 228 221 219 214 211 212 214 203 197 197 175 140 105 76 99 118 129 123 122 129 136 145 141 132 127 128 134 136 136 135 131 123 117 114 115 116 115 111 108 112 119 120 118 119 118 121
236 208 223 223 223 226 211 208 214 223 214 207 228 201 165 127 78 116 116 120 117 113 114 124 143 149 144 140 130 130 135 135 137 134 123 117 119 118 120 119 109 105 109 120 127 125 125 127 123
212 219 225 223 223 220 198 201 206 230 200 193 220 251 143 138 118 130 120 113 116 118 121 124 129 143 149 146 139 140 137 131 141 142 132 136 136 132 133 120 118 117 117 123 131 131 130 132 127
208 223 230 230 235 221 201 210 216 196 202 205 186 144 134 149 145 134 136 133 137 141 144 146 148 139 145 147 152 160 159 157 162 159 154 153 149 138 134 131 131 127 123 127 132 137 147 156 147
207 226 228 232 235 227 217 225 235 211 223 226 213 187 150 145 145 145 151 155 156 162 157 171 174 159 141 148 163 166 166 169 170 165 162 157 151 143 145 150 149 148 148 146 149 167 169 166 157
198 221 229 238 247 237 234 232 235 235 240 236 223 199 171 157 166 170 172 176 174 172 180 181 185 178 167 165 168 171 169 171 171 175 174 164 159 164 164 169 173 171 171 171 182 187 178 178 176
214 227 230 232 244 246 236 236 242 248 258 237 198 191 179 188 197 190 181 193 209 204 216 199 199 195 192 179 174 169 181 183 185 185 189 183 178 183 179 185 187 190 183 183 191 198 187 189 186
196 200 241 256 241 248 237 247 240 247 234 210 188 193 191 196 203 201 211 259 250 229 228 233 208 204 201 188 194 178 185 190 194 195 204 197 192 192 195 194 194 196 198 196 200 205 198 197 191
185 219 258 255 238 237 240 251 236 241 226 215 201 200 196 200 204 210 224 248 270 259 230 254 225 207 198 194 196 175 193 202 204 207 212 206 202 199 202 203 202 203 205 203 205 208 202 193 191
209 222 229 231 237 232 223 240 233 229 223 225 218 212 204 200 203 216 234 245 260 290 252 255 252 217 211 207 206 188 184 198 209 215 216 211 206 203 203 209 212 209 207 204 206 206 202 198 199
212 228 236 244 242 226 221 245 246 241 235 234 225 216 207 203 213 230 250 249 240 273 269 239 259 225 216 212 205 195 183 202 207 215 223 217 210 205 205 214 216 207 206 208 208 214 216 207 202
218 231 242 244 252 236 232 247 254 248 241 234 226 216 211 207 213 234 254 246 241 269 265 228 258 242 215 200 197 196 193 210 210 220 235 235 221 213 209 212 213 207 209 212 209 214 224 218 201
234 238 252 259 268 253 242 251 257 247 241 231 221 214 209 208 207 208 216 283 217 338 302 222 243 244 205 207 202 211 226 238 239 246 243 232 228 222 218 220 213 209 212 213 211 210 217 211 194
230 239 256 268 270 260 254 258 252 239 230 220 217 213 209 204 200 190 193 193 59 309 306 292 259 233 209 222 220 224 240 245 246 248 251 245 232 227 222 220 217 212 211 212 213 207 217 212 203
238 242 244 259 294 253 259 251 228 215 209 207 210 211 210 207 202 196 204 213 273 314 288 280 295 253 223 224 212 242 270 267 259 251 251 254 246 235 230 225 223 218 214 214 215 210 214 216 213
237 245 242 241 253 253 242 253 229 212 206 201 203 202 207 208 203 194 203 223 264 282 286 295 294 268 233 214 221 224 233 254 262 262 259 258 248 239 239 234 228 222 222 221 221 219 224 216 213
231 244 241 237 242 260 231 243 234 207 218 213 207 204 199 208 208 203 209 215 267 286 288 302 292 280 262 237 248 247 254 264 269 268 264 265 256 243 240 242 237 230 229 228 225 222 224 224 219
202 223 233 227 232 248 225 226 244 212 219 211 206 206 210 209 213 222 228 228 302 287 285 307 289 283 290 261 257 260 266 272 270 267 266 266 264 250 243 243 242 238 235 231 230 227 226 226 224
201 211 229 223 224 241 189 229 250 228 219 208 205 207 217 219 217 224 238 273 290 293 288 293 284 288 303 290 271 265 265 266 262 262 261 262 260 257 248 246 244 241 240 238 232 230 232 228 224
203 218 237 250 248 263 206 238 263 204 216 208 214 210 220 229 224 225 237 249 270 284 287 279 275 288 292 284 275 267 267 265 263 262 261 262 261 260 260 252 249 246 243 240 237 232 233 231 226
190 204 247 248 268 265 240 249 269 215 216 205 206 214 245 266 251 251 261 264 270 277 277 276 276 284 286 281 278 273 265 265 267 266 263 265 267 267 263 258 253 249 245 241 239 237 233 230 224
262 176 184 206 235 253 258 249 242 200 210 202 214 255 298 321 319 289 280 276 276 279 278 281 278 276 280 279 274 276 273 266 267 268 264 265 267 267 265 262 258 254 248 243 241 242 238 228 225
171 186 206 203 256 251 259 242 123 202 200 209 230 257 288 317 325 319 309 296 280 275 282 292 295 293 283 276 274 275 275 272 267 263 265 267 264 260 258 261 258 254 248 242 239 238 238 231 226
228 211 196 218 229 238 259 268 68 162 195 212 264 297 304 309 315 320 322 315 300 286 295 301 297 299 294 283 276 275 275 273 270 268 266 265 265 262 259 257 257 255 250 245 240 240 240 233 229
Height
1517 1518 1519 1521 1521 1516 1512 1511 1512 1515 1516 1519 1520 1520 1519 1520 1522 1527 1528 1526 1527 1528 1530 1531 1533 1534 1535 1536 1537 1538 1539 1539 1540 1540 1540 1541 1541 1541 1542 1542 1542 1542 1542 1542 1542 1541 1542 1542 1541
1517 1518 1521 1521 1515 1513 1511 1510 1513 1515 1519 1521 1521 1521 1521 1523 1525 1526 1525 1526 1527 1529 1530 1531 1533 1534 1535 1537 1537 1538 1539 1540 1540 1541 1541 1541 1542 1542 1542 1542 1542 1543 1543 1542 1542 1542 1542 1542 1542
1517 1518 1521 1516 1511 1507 1507 1511 1514 1518 1520 1521 1521 1522 1522 1524 1525 1525 1525 1526 1527 1529 1530 1531 1533 1534 1536 1537 1538 1539 1539 1540 1540 1541 1542 1542 1542 1542 1543 1543 1543 1543 1543 1543 1543 1543 1543 1543 1543
1518 1520 1520 1515 1510 1509 1509 1512 1516 1518 1520 1521 1521 1522 1524 1525 1525 1525 1525 1526 1528 1529 1531 1531 1533 1534 1536 1537 1538 1539 1540 1540 1541 1541 1542 1542 1543 1543 1543 1543 1543 1543 1544 1544 1544 1544 1544 1544 1544
1518 1519 1516 1513 1510 1511 1513 1516 1517 1516 1518 1520 1521 1521 1524 1525 1524 1524 1525 1526 1528 1529 1531 1532 1533 1534 1535 1537 1538 1539 1540 1540 1541 1541 1542 1543 1543 1543 1543 1543 1544 1544 1544 1544 1544 1544 1544 1544 1544
1519 1516 1511 1508 1508 1512 1515 1518 1518 1517 1518 1520 1521 1521 1524 1525 1524 1524 1525 1527 1528 1529 1531 1532 1533 1534 1535 1536 1537 1538 1539 1540 1541 1541 1542 1542 1543 1543 1543 1544 1544 1544 1544 1544 1544 1544 1544 1545 1545
1518 1514 1509 1507 1509 1511 1515 1518 1518 1517 1518 1520 1521 1521 1523 1525 1524 1524 1525 1527 1528 1529 1530 1532 1533 1533 1534 1536 1537 1538 1539 1540 1540 1541 1542 1542 1543 1543 1543 1544 1544 1544 1544 1544 1545 1545 1545 1545 1545
1517 1516 1512 1509 1509 1511 1516 1518 1519 1519 1519 1521 1522 1521 1522 1524 1523 1524 1525 1527 1528 1528 1530 1531 1533 1533 1534 1535 1537 1538 1538 1539 1540 1541 1541 1542 1543 1543 1543 1543 1544 1544 1544 1544 1545 1545 1545 1545 1545
1517 1516 1509 1509 1510 1512 1517 1517 1519 1520 1520 1521 1521 1522 1522 1522 1523 1524 1525 1526 1527 1528 1529 1530 1532 1532 1534 1535 1536 1537 1538 1538 1539 1540 1541 1541 1542 1543 1543 1543 1543 1543 1544 1544 1544 1545 1545 1545 1545
1516 1511 1509 1512 1514 1514 1517 1518 1519 1519 1519 1519 1520 1521 1521 1521 1522 1523 1524 1524 1526 1527 1528 1529 1530 1531 1532 1534 1535 1536 1537 1537 1538 1539 1540 1540 1541 1542 1542 1542 1543 1543 1543 1543 1544 1544 1544 1545 1545
1515 1512 1513 1515 1516 1517 1517 1518 1519 1518 1517 1518 1519 1519 1520 1520 1521 1522 1523 1524 1524 1526 1527 1528 1529 1530 1531 1532 1533 1534 1535 1536 1537 1538 1538 1539 1540 1540 1540 1541 1541 1542 1542 1542 1543 1543 1544 1544 1544
1515 1515 1516 1517 1517 1517 1517 1518 1518 1517 1517 1518 1518 1518 1518 1518 1520 1520 1521 1522 1523 1524 1526 1527 1528 1528 1529 1530 1531 1532 1533 1534 1535 1536 1537 1537 1538 1538 1539 1539 1540 1540 1541 1541 1542 1542 1542 1543 1543
1515 1516 1517 1517 1517 1518 1517 1517 1517 1516 1516 1516 1516 1516 1517 1518 1519 1520 1520 1521 1521 1522 1523 1525 1526 1527 1527 1528 1529 1530 1531 1532 1533 1533 1534 1535 1536 1536 1537 1537 1538 1539 1539 1539 1540 1541 1541 1541 1542
1516 1516 1517 1517 1516 1516 1515 1515 1515 1514 1514 1514 1514 1514 1515 1516 1517 1518 1518 1518 1519 1520 1521 1522 1524 1525 1526 1526 1527 1528 1529 1529 1530 1531 1532 1533 1533 1534 1534 1535 1536 1536 1537 1537 1538 1539 1539 1540 1540
1517 1516 1515 1514 1514 1514 1514 1512 1511 1512 1513 1512 1512 1513 1513 1514 1515 1515 1516 1516 1517 1518 1519 1520 1521 1523 1524 1524 1525 1525 1526 1527 1528 1528 1529 1530 1531 1532 1532 1532 1533 1534 1534 1535 1536 1536 1537 1537 1538
1515 1512 1510 1511 1512 1512 1514 1505 1507 1509 1510 1510 1510 1511 1511 1512 1513 1513 1514 1514 1515 1516 1517 1518 1519 1520 1521 1522 1523 1523 1524 1525 1525 1526 1527 1527 1528 1529 1529 1530 1530 1531 1532 1533 1533 1534 1534 1534 1535
1510 1506 1505 1509 1510 1510 1509 1503 1506 1508 1508 1507 1507 1508 1509 1510 1511 1511 1512 1512 1513 1514 1514 1515 1516 1518 1519 1519 1520 1521 1522 1522 1523 1523 1524 1524 1525 1526 1526 1527 1527 1528 1529 1530 1530 1531 1531 1532 1532
1504 1504 1505 1506 1508 1509 1506 1503 1504 1505 1506 1505 1505 1505 1506 1507 1508 1509 1509 1510 1511 1511 1512 1513 1514 1515 1516 1517 1518 1518 1519 1520 1520 1520 1521 1521 1522 1523 1523 1524 1524 1525 1526 1527 1527 1528 1528 1529 1529
1508 1507 1505 1505 1509 1508 1503 1500 1500 1502 1503 1502 1502 1503 1503 1505 1506 1507 1507 1508 1509 1509 1510 1510 1511 1512 1513 1513 1514 1515 1516 1516 1517 1517 1518 1518 1519 1519 1520 1520 1521 1522 1522 1523 1524 1525 1525 1525 1526
1509 1506 1504 1505 1507 1506 1501 1498 1496 1498 1499 1499 1500 1500 1501 1502 1504 1504 1505 1505 1506 1506 1507 1508 1508 1509 1509 1510 1511 1512 1512 1513 1513 1514 1514 1515 1515 1516 1516 1517 1517 1518 1519 1519 1520 1520 1521 1521 1522
1507 1505 1504 1504 1505 1503 1501 1492 1492 1494 1496 1497 1498 1499 1499 1499 1500 1501 1502 1503 1503 1504 1504 1505 1505 1506 1506 1507 1508 1508 1509 1509 1510 1510 1510 1511 1511 1512 1512 1513 1513 1514 1514 1514 1515 1516 1517 1517 1518
1503 1506 1505 1505 1503 1497 1500 1488 1484 1488 1492 1494 1495 1496 1496 1497 1497 1498 1499 1500 1500 1501 1501 1502 1502 1503 1503 1504 1504 1505 1505 1505 1505 1506 1506 1506 1507 1507 1508 1508 1509 1509 1509 1510 1511 1511 1512 1513 1513
1504 1507 1505 1504 1503 1501 1497 1495 1479 1485 1487 1489 1491 1493 1494 1495 1495 1496 1496 1497 1498 1498 1499 1499 1499 1500 1500 1501 1501 1502 1502 1502 1502 1502 1501 1501 1502 1502 1503 1503 1504 1504 1504 1505 1506 1506 1507 1508 1508
1507 1507 1504 1503 1501 1497 1491 1490 1476 1480 1482 1485 1489 1491 1492 1493 1493 1494 1494 1494 1495 1495 1495 1496 1496 1496 1496 1497 1498 1498 1497 1497 1497 1497 1497 1497 1497 1497 1497 1498 1498 1499 1499 1500 1500 1501 1502 1502 1503
1505 1502 1497 1494 1492 1485 1493 1491 1479 1481 1484 1485 1487 1489 1490 1491 1490 1491 1491 1491 1492 1491 1492 1492 1493 1493 1493 1493 1494 1494 1493 1493 1493 1493 1492 1492 1491 1491 1492 1492 1493 1493 1494 1494 1495 1495 1496 1497 1497
1503 1501 1496 1489 1482 1480 1492 1486 1478 1484 1485 1486 1487 1488 1488 1488 1488 1488 1488 1488 1489 1489 1489 1489 1489 1488 1489 1489 1489 1489 1489 1489 1488 1488 1487 1487 1486 1486 1487 1487 1487 1488 1488 1489 1489 1489 1490 1491 1491
1501 1500 1502 1498 1498 1492 1479 1480 1481 1484 1484 1485 1486 1485 1485 1485 1485 1485 1485 1485 1485 1485 1485 1485 1484 1484 1485 1485 1485 1484 1484 1484 1483 1483 1483 1482 1482 1482 1482 1482 1482 1482 1483 1483 1484 1483 1484 1484 1485
1504 1502 1500 1497 1490 1480 1474 1474 1471 1480 1481 1483 1483 1483 1483 1483 1483 1483 1482 1482 1482 1482 1482 1481 1481 1481 1480 1480 1480 1479 1479 1479 1478 1478 1477 1477 1476 1477 1477 1477 1477 1477 1477 1477 1478 1478 1478 1478 1479
1504 1503 1500 1496 1493 1483 1475 1470 1475 1477 1480 1481 1482 1482 1482 1482 1481 1480 1480 1480 1479 1479 1478 1477 1476 1476 1476 1475 1475 1474 1473 1473 1473 1472 1471 1471 1471 1471 1471 1471 1472 1471 1472 1472 1472 1472 1472 1472 1473
1501 1499 1498 1494 1495 1493 1482 1476 1480 1480 1481 1482 1483 1482 1481 1481 1480 1479 1478 1477 1477 1476 1474 1473 1473 1472 1471 1470 1469 1468 1468 1468 1467 1466 1466 1466 1465 1466 1466 1465 1466 1466 1466 1466 1466 1466 1466 1467 1467